Date String (YYYY-MM-DD hh:mm:ss) UTC,Instrument flags,Ambient pressure (hPa),Sample flow (lpm),Bypass flow (lpm),Sample temperature (°C),Ambient temperature (°C),ASC tube jacket temperature (°C),LED temperature (°C),Box temperature (°C),Sample RH (%),Span deviation,Mass concentration (μg/m³),Mass concentration (μg/m³),Mass concentration (μg/m³)
DateTimeUTC,F1_M11,P_M11,Q1_M11,Q2_M11,T1_M11,T2_M11,T3_M11,T4_M11,T5_M11,U1_M11,ZSPAN_M11,X0_M11,X2_M11,X1_M11
2021-09-09 03:00:00,,0831.8,5.00,0.00,29.5,28.8,00.0,38.4,31.4,18.8,0002.0,0051.88,0032.52,0029.73
2021-09-09 03:01:00,,0831.8,5.01,0.00,29.5,28.8,00.0,38.4,31.4,18.8,0001.9,0053.61,0032.62,0029.83
2021-09-09 03:02:00,,0831.8,5.00,0.00,29.5,27.3,00.0,38.4,31.0,18.8,0002.0,0054.41,0032.65,0029.90
2021-09-09 03:03:00,,0831.8,4.99,0.00,29.3,25.3,00.0,38.4,30.4,19.0,0002.0,0054.59,0032.66,0029.89
2021-09-09 03:04:00,,0831.8,5.02,0.00,29.1,25.1,00.0,38.4,30.3,19.1,0002.0,0054.66,0032.64,0029.88
2021-09-09 03:05:00,,0831.8,4.99,0.00,29.1,25.6,00.0,38.3,30.4,19.2,0001.8,0054.19,0032.71,0029.91
2021-09-09 03:06:00,,0831.8,5.00,0.00,29.0,26.1,00.0,38.3,30.6,19.3,0001.8,0053.98,0032.76,0029.96
2021-09-09 03:07:00,,0831.8,5.00,0.00,29.0,26.6,00.0,38.2,30.7,19.3,0001.7,0054.69,0032.80,0029.94
2021-09-09 03:08:00,,0831.8,5.00,0.00,29.0,27.1,00.0,38.2,30.8,19.3,0001.8,0054.31,0032.80,0029.92
2021-09-09 03:09:00,,0832.0,5.00,0.00,29.1,27.4,00.0,38.2,30.8,19.2,0001.9,0054.57,0032.75,0029.85
2021-09-09 03:10:00,,0832.0,4.99,0.00,29.1,27.7,00.0,38.2,30.9,19.2,0002.0,0056.02,0032.75,0029.81
2021-09-09 03:11:00,,0832.0,5.01,0.00,29.1,27.9,00.0,38.2,31.0,19.2,0002.2,0056.41,0032.77,0029.82
2021-09-09 03:12:00,,0832.0,5.01,0.00,29.2,28.1,00.0,38.2,31.0,19.1,0002.3,0055.03,0032.75,0029.79
2021-09-09 03:13:00,,0831.9,5.00,0.00,29.2,28.2,00.0,38.3,31.1,19.1,0002.2,0054.19,0032.75,0029.78
2021-09-09 03:14:00,,0832.0,4.99,0.00,29.3,28.3,00.0,38.3,31.1,19.0,0002.2,0054.45,0032.76,0029.81
2021-09-09 03:15:00,,0832.0,5.01,0.00,29.3,28.5,00.0,38.3,31.2,19.0,0002.4,0054.24,0032.79,0029.81
2021-09-09 03:16:00,,0831.9,4.99,0.00,29.4,28.5,00.0,38.3,31.2,18.9,0002.4,0053.06,0032.74,0029.77
2021-09-09 03:17:00,,0832.0,5.01,0.00,29.4,28.6,00.0,38.3,31.3,18.9,0002.3,0051.92,0032.64,0029.72
2021-09-09 03:18:00,,0832.0,5.01,0.00,29.5,28.7,00.0,38.4,31.4,18.8,0002.1,0051.25,0032.65,0029.72
2021-09-09 03:19:00,,0831.9,4.99,0.00,29.5,28.8,00.0,38.4,31.4,18.8,0002.1,0051.05,0032.63,0029.71
2021-09-09 03:20:00,,0832.0,5.01,0.00,29.6,28.8,00.0,38.4,31.4,18.7,0002.1,0051.40,0032.73,0029.78
2021-09-09 03:21:00,,0831.9,5.00,0.00,29.6,27.8,00.0,38.5,31.2,18.7,0002.2,0050.98,0032.87,0029.87
2021-09-09 03:22:00,,0832.0,4.99,0.00,29.4,26.2,00.0,38.4,30.7,18.8,0002.1,0051.07,0032.88,0029.83
2021-09-09 03:23:00,,0832.0,5.01,0.00,29.3,26.2,00.0,38.4,30.7,19.0,0002.1,0051.97,0032.85,0029.78
2021-09-09 03:24:00,,0832.0,5.00,0.00,29.2,26.5,00.0,38.4,30.8,19.0,0002.2,0054.20,0032.87,0029.76
2021-09-09 03:25:00,,0832.0,4.99,0.00,29.2,27.0,00.0,38.4,30.9,19.1,0002.2,0053.88,0032.85,0029.70
2021-09-09 03:26:00,,0831.9,5.00,0.00,29.2,27.3,00.0,38.4,30.9,19.1,0002.3,0053.42,0032.77,0029.66
2021-09-09 03:27:00,,0832.0,5.02,0.00,29.3,27.6,00.0,38.4,31.0,19.1,0002.5,0054.96,0032.72,0029.57
2021-09-09 03:28:00,,0831.9,5.00,0.00,29.3,27.9,00.0,38.4,31.1,19.0,0002.7,0057.16,0032.63,0029.47
2021-09-09 03:29:00,,0831.9,5.00,0.00,29.3,28.1,00.0,38.4,31.2,19.0,0002.8,0056.69,0032.50,0029.37
2021-09-09 03:30:00,,0831.9,5.00,0.00,29.4,28.2,00.0,38.4,31.2,19.0,0002.5,0056.50,0032.42,0029.32
2021-09-09 03:31:00,,0832.0,4.99,0.00,29.4,28.4,00.0,38.4,31.2,19.0,0002.5,0055.59,0032.27,0029.24
2021-09-09 03:32:00,,0831.9,4.99,0.00,29.5,28.5,00.0,38.4,31.3,18.9,0002.4,0055.46,0032.08,0029.13
2021-09-09 03:33:00,,0832.0,5.01,0.00,29.5,28.6,00.0,38.5,31.3,18.8,0002.4,0056.48,0031.92,0029.00
2021-09-09 03:34:00,,0832.0,5.00,0.00,29.6,28.7,00.0,38.5,31.4,18.8,0002.3,0056.30,0031.86,0028.90
2021-09-09 03:35:00,,0832.0,5.00,0.00,29.6,28.8,00.0,38.5,31.4,18.7,0002.0,0055.43,0031.78,0028.87
2021-09-09 03:36:00,,0832.0,5.00,0.00,29.6,28.5,00.0,38.5,31.4,18.6,0002.0,0056.69,0031.72,0028.83
2021-09-09 03:37:00,,0831.9,5.00,0.00,29.5,26.7,00.0,38.5,30.9,18.7,0001.7,0056.96,0031.68,0028.82
2021-09-09 03:38:00,,0831.9,5.01,0.00,29.4,26.1,00.0,38.5,30.8,18.8,0001.5,0055.67,0031.56,0028.79
2021-09-09 03:39:00,,0831.9,5.00,0.00,29.3,26.4,00.0,38.5,30.8,18.9,0001.5,0054.19,0031.55,0028.80
2021-09-09 03:40:00,,0831.9,5.00,0.00,29.3,26.8,00.0,38.5,30.9,19.0,0001.6,0055.03,0031.52,0028.81
2021-09-09 03:41:00,,0831.9,5.01,0.00,29.3,27.2,00.0,38.4,30.9,19.0,0001.8,0055.92,0031.50,0028.76
2021-09-09 03:42:00,,0832.0,4.99,0.00,29.3,27.5,00.0,38.4,31.0,19.0,0001.7,0056.39,0031.48,0028.75
2021-09-09 03:43:00,,0832.0,5.01,0.00,29.3,27.8,00.0,38.4,31.1,18.9,0001.6,0055.64,0031.49,0028.73
2021-09-09 03:44:00,,0832.0,4.98,0.00,29.4,28.0,00.0,38.4,31.1,18.9,0001.3,0053.86,0031.54,0028.76
2021-09-09 03:45:00,,0832.0,4.99,0.00,29.4,28.2,00.0,38.4,31.2,18.8,0001.3,0053.07,0031.54,0028.83
2021-09-09 03:46:00,,0832.0,5.01,0.00,29.4,28.3,00.0,38.5,31.2,18.8,0001.3,0052.13,0031.43,0028.79
2021-09-09 03:47:00,,0831.9,4.99,0.00,29.5,28.5,00.0,38.5,31.3,18.7,0001.2,0051.44,0031.30,0028.76
2021-09-09 03:48:00,,0831.9,5.02,0.00,29.5,28.5,00.0,38.5,31.3,18.6,0001.2,0051.19,0031.23,0028.71
2021-09-09 03:49:00,,0831.8,5.00,0.00,29.6,28.6,00.0,38.5,31.4,18.6,0001.2,0050.66,0031.17,0028.71
2021-09-09 03:50:00,,0831.8,5.00,0.00,29.6,28.7,00.0,38.5,31.4,18.5,0001.1,0050.44,0031.16,0028.68
2021-09-09 03:51:00,,0831.8,4.99,0.00,29.6,28.8,00.0,38.6,31.5,18.5,0001.0,0050.14,0031.17,0028.64
2021-09-09 03:52:00,,0831.7,5.00,0.00,29.6,27.6,00.0,38.6,31.2,18.4,0001.1,0048.74,0031.13,0028.60
2021-09-09 03:53:00,,0831.8,5.01,0.00,29.5,26.2,00.0,38.6,30.8,18.6,0001.1,0048.27,0031.05,0028.53
2021-09-09 03:54:00,,0831.7,5.00,0.00,29.4,26.3,00.0,38.5,30.8,18.6,0001.2,0048.19,0031.01,0028.49
2021-09-09 03:55:00,,0831.7,5.00,0.00,29.3,26.7,00.0,38.5,30.8,18.7,0001.4,0049.66,0030.93,0028.44
2021-09-09 03:56:00,,0831.7,4.99,0.00,29.3,27.1,00.0,38.5,30.9,18.7,0001.5,0051.09,0030.83,0028.33
2021-09-09 03:57:00,,0831.7,5.00,0.00,29.3,27.4,00.0,38.5,31.0,18.7,0001.7,0050.54,0030.78,0028.25
2021-09-09 03:58:00,,0831.7,5.00,0.00,29.3,27.7,00.0,38.5,31.0,18.7,0001.9,0049.35,0030.77,0028.23
2021-09-09 03:59:00,,0831.7,5.00,0.00,29.4,27.9,00.0,38.5,31.1,18.7,0002.2,0049.27,0030.71,0028.21
